Location: Lourdes
(43.1000°N, 0.0500°W)
Time: 11:14:24
(UTC+00:00)

Cosmos 1151 Rocket - Pass Details

Date: 13 April 2021
Orbit: 593 x 614 km, 82.5° (Epoch: 09 May)

Event Time Altitude Azimuth Distance (km) Brightness Sun altitude
Exits shadow 01:20:57 12° 341° (NNW) 1,796 5.9 -34.7°
Drops below altitude 10° 01:21:25 10° 345° (NNW) 1,946 6.1 -34.7°
Sets 01:23:55 0° 358° (N) 2,858 7.3 -34.5°
